| time (UTC) | temp F | wind direction | speed MPH | gust MPH | rain 1hr in | rain 24hr in | rain mn in | humidity % | barometer mb |
| 20260505124500 | 61 | 141 | 1.0 | 4.0 | 0.00 | 0.24 | 0.24 | 95 | 1003.8 |
| 20260505123954 | 61 | 157 | 2.0 | 7.0 | 0.00 | 0.24 | 0.24 | 95 | 1003.7 |
| 20260505123455 | 61 | 164 | 2.0 | 7.0 | 0.00 | 0.24 | 0.24 | 95 | 1003.8 |
| 20260505122956 | 61 | 147 | 2.0 | 7.0 | 0.00 | 0.24 | 0.24 | 95 | 1003.3 |
| 20260505122712 | 60 | 135 | 3.0 | 7.0 | 0.01 | 0.24 | 0.24 | 95 | 1003.1 |
| 20260505121954 | 60 | 144 | 3.0 | 10.0 | 0.01 | 0.24 | 0.24 | 95 | 1003.3 |
| 20260505121453 | 60 | 130 | 3.0 | 10.0 | 0.01 | 0.24 | 0.24 | 95 | 1003.4 |
| 20260505120952 | 60 | 173 | 3.0 | 9.0 | 0.02 | 0.24 | 0.24 | 95 | 1003.4 |
| 20260505120714 | 60 | 132 | 2.0 | 9.0 | 0.02 | 0.24 | 0.24 | 95 | 1003.4 |
| 20260505115952 | 60 | 125 | 3.0 | 7.0 | 0.02 | 0.24 | 0.24 | 95 | 1003.4 |
| 20260505115451 | 60 | 122 | 2.0 | 6.0 | 0.02 | 0.24 | 0.24 | 95 | 1003.4 |
| 20260505114950 | 60 | 188 | 2.0 | 6.0 | 0.02 | 0.24 | 0.24 | 95 | 1003.5 |
| 20260505113951 | 60 | 171 | 2.0 | 6.0 | 0.03 | 0.24 | 0.24 | 95 | 1003.7 |
| 20260505113451 | 60 | 198 | 2.0 | 6.0 | 0.03 | 0.24 | 0.24 | 95 | 1003.8 |
| 20260505112952 | 60 | 193 | 2.0 | 4.0 | 0.04 | 0.24 | 0.24 | 95 | 1004.0 |
| 20260505112712 | 60 | 144 | 2.0 | 6.0 | 0.06 | 0.23 | 0.23 | 95 | 1004.0 |
| 20260505111959 | 60 | 134 | 2.0 | 6.0 | 0.07 | 0.23 | 0.23 | 95 | 1004.3 |
| 20260505111501 | 60 | 131 | 1.0 | 5.0 | 0.07 | 0.23 | 0.23 | 95 | 1004.3 |
| 20260505111428 | 60 | 113 | 0.0 | 2.0 | 0.07 | 0.22 | 0.22 | 95 | 1004.5 |
| 20260505110459 | 61 | 126 | 0.0 | 0.0 | 0.07 | 0.22 | 0.22 | 95 | 1004.7 |
| 20260505101946 | 60 | 127 | 0.0 | 1.0 | 0.07 | 0.16 | 0.16 | 94 | 1004.4 |
| 20260505101447 | 60 | 127 | 0.0 | 3.0 | 0.08 | 0.16 | 0.16 | 94 | 1004.4 |
| 20260505100946 | 60 | 127 | 1.0 | 5.0 | 0.08 | 0.15 | 0.15 | 94 | 1004.0 |
| 20260505100448 | 60 | 165 | 2.0 | 5.0 | 0.09 | 0.15 | 0.15 | 94 | 1003.5 |
| 20260505095947 | 60 | 131 | 1.0 | 3.0 | 0.10 | 0.15 | 0.15 | 94 | 1003.9 |
| 20260505095441 | 61 | 150 | 0.0 | 3.0 | 0.11 | 0.15 | 0.15 | 93 | 1004.0 |
| 20260505095204 | 61 | 281 | 0.0 | 1.0 | 0.10 | 0.14 | 0.14 | 93 | 1003.9 |
| 20260505094429 | 61 | 281 | 0.0 | 2.0 | 0.11 | 0.14 | 0.14 | 93 | 1004.3 |
| 20260505093923 | 61 | 281 | 0.0 | 2.0 | 0.10 | 0.13 | 0.13 | 92 | 1003.7 |
| 20260505093639 | 61 | 309 | 0.0 | 1.0 | 0.09 | 0.12 | 0.12 | 92 | 1002.4 |
| 20260505092911 | 61 | 305 | 0.0 | 2.0 | 0.09 | 0.11 | 0.11 | 92 | 1003.9 |
| 20260505092405 | 61 | 305 | 0.0 | 2.0 | 0.09 | 0.10 | 0.10 | 92 | 1004.6 |
| 20260505091859 | 61 | 304 | 0.0 | 2.0 | 0.09 | 0.09 | 0.09 | 92 | 1004.8 |
| 20260505091353 | 61 | 304 | 0.0 | 2.0 | 0.08 | 0.08 | 0.08 | 91 | 1004.8 |
| 20260505091108 | 62 | 317 | 0.0 | 1.0 | 0.07 | 0.07 | 0.07 | 91 | 1004.4 |
| 20260505090613 | 62 | 102 | 0.0 | 0.0 | 0.06 | 0.06 | 0.06 | 90 | 1004.6 |
| 20260505090106 | 62 | 102 | 0.0 | 0.0 | 0.05 | 0.05 | 0.05 | 88 | 1004.2 |
| 20260505085346 | 62 | 102 | 0.0 | 0.0 | 0.04 | 0.04 | 0.04 | 88 | 1003.8 |
| 20260505084847 | 62 | 102 | 0.0 | 0.0 | 0.04 | 0.04 | 0.04 | 87 | 1003.8 |
| 20260505084346 | 63 | 102 | 0.0 | 0.0 | 0.03 | 0.03 | 0.03 | 86 | 1003.7 |
| 20260505083846 | 63 | 102 | 0.0 | 0.0 | 0.03 | 0.03 | 0.03 | 85 | 1003.5 |
| 20260505083346 | 64 | 102 | 0.0 | 0.0 | 0.03 | 0.03 | 0.03 | 82 | 1003.1 |
| 20260505082846 | 65 | 102 | 0.0 | 0.0 | 0.02 | 0.02 | 0.02 | 81 | 1003.2 |
| 20260505082345 | 66 | 113 | 0.0 | 0.0 | 0.01 | 0.01 | 0.01 | 78 | 1003.5 |
| 20260505081844 | 66 | 113 | 0.0 | 0.0 | 0.00 | 0.00 | 0.00 | 75 | 1003.7 |
| 20260505081340 | 67 | 113 | 0.0 | 0.0 | 0.00 | 0.00 | 0.00 | 73 | 1003.8 |
| 20260505080838 | 67 | 113 | 0.0 | 0.0 | 0.00 | 0.00 | 0.00 | 72 | 1003.3 |
| 20260505080600 | 67 | 113 | 0.0 | 6.0 | 0.00 | 0.00 | 0.00 | 71 | 1003.3 |
| 20260505080109 | 67 | 113 | 0.0 | 6.0 | 0.00 | 0.00 | 0.00 | 70 | 1003.2 |
| 20260505075335 | 67 | 140 | 0.0 | 4.0 | 0.00 | 0.00 | 0.00 | 70 | 1003.3 |
| 20260505074836 | 67 | 111 | 2.0 | 7.0 | 0.00 | 0.00 | 0.00 | 70 | 1002.9 |
| 20260505074336 | 67 | 136 | 3.0 | 8.0 | 0.00 | 0.00 | 0.00 | 69 | 1002.6 |
| 20260505073836 | 67 | 137 | 2.0 | 8.0 | 0.00 | 0.00 | 0.00 | 70 | 1002.6 |
| 20260505073555 | 67 | 140 | 1.0 | 6.0 | 0.00 | 0.00 | 0.00 | 69 | 1003.0 |
| 20260505072825 | 67 | 140 | 2.0 | 7.0 | 0.00 | 0.00 | 0.00 | 70 | 1003.2 |
| 20260505072319 | 67 | 107 | 2.0 | 7.0 | 0.00 | 0.00 | 0.00 | 69 | 1003.0 |
| 20260505072036 | 67 | 144 | 2.0 | 6.0 | 0.00 | 0.00 | 0.00 | 69 | 1003.3 |
| 20260505071539 | 67 | 126 | 1.0 | 4.0 | 0.00 | 0.00 | 0.00 | 70 | 1003.3 |
| 20260505070801 | 67 | 172 | 3.0 | 9.0 | 0.00 | 0.00 | 0.00 | 70 | 1003.5 |
| 20260505070255 | 67 | 148 | 4.0 | 9.0 | 0.00 | 0.00 | 0.00 | 70 | 1003.4 |
| 20260505065749 | 67 | 131 | 2.0 | 9.0 | 0.00 | 0.00 | 0.00 | 71 | 1003.7 |
| 20260505065243 | 66 | 147 | 2.0 | 6.0 | 0.00 | 0.00 | 0.00 | 71 | 1003.8 |
| 20260505064736 | 66 | 131 | 1.0 | 4.0 | 0.00 | 0.00 | 0.00 | 71 | 1003.9 |
| 20260505064232 | 66 | 147 | 1.0 | 4.0 | 0.00 | 0.00 | 0.00 | 72 | 1003.9 |
| 20260505063725 | 66 | 144 | 0.0 | 3.0 | 0.00 | 0.00 | 0.00 | 73 | 1004.1 |
| 20260505063219 | 66 | 175 | 0.0 | 0.0 | 0.00 | 0.00 | 0.00 | 72 | 1004.3 |
| 20260505062713 | 66 | 175 | 0.0 | 0.0 | 0.00 | 0.00 | 0.00 | 72 | 1004.2 |
| 20260505062207 | 66 | 151 | 0.0 | 0.0 | 0.00 | 0.00 | 0.00 | 71 | 1004.2 |
| 20260505061700 | 67 | 151 | 0.0 | 2.0 | 0.00 | 0.00 | 0.00 | 71 | 1004.2 |
| 20260505061202 | 67 | 164 | 0.0 | 2.0 | 0.00 | 0.00 | 0.00 | 70 | 1004.4 |
| 20260505060701 | 67 | 153 | 1.0 | 7.0 | 0.00 | 0.00 | 0.00 | 70 | 1004.4 |
| 20260505060201 | 67 | 116 | 1.0 | 7.0 | 0.00 | 0.00 | 0.00 | 69 | 1004.5 |
| 20260505055659 | 67 | 140 | 2.0 | 6.0 | 0.00 | 0.00 | 0.00 | 70 | 1004.3 |
| 20260505055158 | 67 | 163 | 2.0 | 7.0 | 0.00 | 0.00 | 0.00 | 70 | 1004.5 |
| 20260505054658 | 67 | 138 | 3.0 | 7.0 | 0.00 | 0.00 | 0.00 | 69 | 1004.3 |
| 20260505054158 | 67 | 146 | 3.0 | 7.0 | 0.00 | 0.00 | 0.00 | 70 | 1004.2 |
| 20260505053657 | 67 | 111 | 2.0 | 7.0 | 0.00 | 0.00 | 0.00 | 70 | 1004.4 |
| 20260505053157 | 67 | 117 | 2.0 | 7.0 | 0.00 | 0.00 | 0.00 | 71 | 1004.5 |
| 20260505052655 | 67 | 158 | 2.0 | 7.0 | 0.00 | 0.00 | 0.00 | 71 | 1004.5 |
| 20260505052154 | 67 | 115 | 2.0 | 6.0 | 0.00 | 0.00 | 0.00 | 71 | 1004.6 |
| 20260505051655 | 67 | 121 | 2.0 | 6.0 | 0.00 | 0.00 | 0.00 | 71 | 1004.7 |
| 20260505051154 | 66 | 163 | 2.0 | 7.0 | 0.00 | 0.00 | 0.00 | 71 | 1004.7 |
| 20260505050918 | 66 | 106 | 2.0 | 7.0 | 0.00 | 0.00 | 0.00 | 72 | 1004.7 |
| 20260505050410 | 66 | 128 | 1.0 | 3.0 | 0.00 | 0.00 | 0.00 | 72 | 1004.8 |
| 20260505041623 | 66 | 125 | 1.0 | 4.0 | 0.00 | 0.00 | 0.00 | 72 | 1005.1 |
| 20260505041123 | 66 | 159 | 0.0 | 4.0 | 0.00 | 0.00 | 0.00 | 72 | 1005.2 |
| 20260505040623 | 66 | 167 | 0.0 | 4.0 | 0.00 | 0.00 | 0.00 | 73 | 1005.2 |
| 20260505040122 | 65 | 119 | 0.0 | 0.0 | 0.00 | 0.00 | 0.00 | 73 | 1005.3 |
| 20260505035619 | 64 | 116 | 0.0 | 0.0 | 0.00 | 0.00 | 0.00 | 75 | 1005.3 |
| 20260505035342 | 64 | 127 | 0.0 | 2.0 | 0.00 | 0.00 | 0.00 | 76 | 1005.4 |
| 20260505034841 | 64 | 127 | 0.0 | 2.0 | 0.00 | 0.00 | 0.00 | 76 | 1005.4 |
| 20260505034117 | 63 | 189 | 0.0 | 0.0 | 0.00 | 0.00 | 0.00 | 77 | 1005.6 |
| 20260505033615 | 63 | 189 | 0.0 | 0.0 | 0.00 | 0.00 | 0.00 | 77 | 1005.8 |
| 20260505033115 | 63 | 189 | 0.0 | 0.0 | 0.00 | 0.00 | 0.00 | 77 | 1005.7 |
| 20260505032614 | 64 | 189 | 0.0 | 0.0 | 0.00 | 0.00 | 0.00 | 78 | 1005.7 |
| 20260505032113 | 64 | 189 | 0.0 | 0.0 | 0.00 | 0.00 | 0.00 | 77 | 1005.8 |
| 20260505031612 | 64 | 189 | 0.0 | 0.0 | 0.00 | 0.00 | 0.00 | 76 | 1005.7 |
| 20260505031113 | 64 | 123 | 0.0 | 0.0 | 0.00 | 0.00 | 0.00 | 76 | 1005.5 |
| 20260505030613 | 64 | 123 | 0.0 | 0.0 | 0.00 | 0.00 | 0.00 | 74 | 1005.7 |
| 20260505030114 | 65 | 123 | 0.0 | 0.0 | 0.00 | 0.00 | 0.00 | 73 | 1005.6 |
| 20260505025610 | 65 | 123 | 0.0 | 0.0 | 0.00 | 0.00 | 0.00 | 73 | 1005.4 |
| 20260505025552 | 66 | 123 | 0.0 | 0.0 | 0.00 | 0.00 | 0.00 | 72 | 1005.5 |
| 20260505024605 | 66 | 123 | 0.0 | 0.0 | 0.00 | 0.00 | 0.00 | 70 | 1005.4 |
| 20260505024059 | 67 | 123 | 0.0 | 2.0 | 0.00 | 0.00 | 0.00 | 70 | 1005.3 |
| 20260505023821 | 67 | 123 | 0.0 | 5.0 | 0.00 | 0.00 | 0.00 | 69 | 1005.2 |
| 20260505023047 | 68 | 123 | 0.0 | 5.0 | 0.00 | 0.00 | 0.00 | 67 | 1005.1 |
| 20260505022541 | 68 | 141 | 0.0 | 3.0 | 0.00 | 0.00 | 0.00 | 67 | 1005.0 |
| 20260505022035 | 69 | 153 | 1.0 | 4.0 | 0.00 | 0.00 | 0.00 | 66 | 1004.9 |
| 20260505021529 | 69 | 155 | 1.0 | 4.0 | 0.00 | 0.00 | 0.00 | 66 | 1004.8 |
| 20260505021023 | 69 | 134 | 2.0 | 4.0 | 0.00 | 0.00 | 0.00 | 66 | 1004.8 |
| 20260505020741 | 69 | 146 | 2.0 | 5.0 | 0.00 | 0.00 | 0.00 | 65 | 1004.6 |
| 20260505020011 | 69 | 163 | 1.0 | 6.0 | 0.00 | 0.00 | 0.00 | 65 | 1004.6 |
| 20260505015729 | 69 | 159 | 0.0 | 6.0 | 0.00 | 0.00 | 0.00 | 65 | 1004.5 |
| 20260505015220 | 69 | 134 | 0.0 | 3.0 | 0.00 | 0.00 | 0.00 | 65 | 1004.5 |
| 20260505014453 | 69 | 152 | 0.0 | 3.0 | 0.00 | 0.00 | 0.00 | 64 | 1004.5 |
| 20260505013947 | 69 | 161 | 1.0 | 5.0 | 0.00 | 0.00 | 0.00 | 64 | 1004.5 |
| 20260505013441 | 70 | 171 | 1.0 | 5.0 | 0.00 | 0.00 | 0.00 | 64 | 1004.5 |
| 20260505012935 | 70 | 106 | 0.0 | 6.0 | 0.00 | 0.00 | 0.00 | 63 | 1004.4 |
| 20260505012429 | 70 | 181 | 1.0 | 6.0 | 0.00 | 0.00 | 0.00 | 63 | 1004.4 |
| 20260505011923 | 70 | 157 | 1.0 | 5.0 | 0.00 | 0.00 | 0.00 | 63 | 1004.3 |
| 20260505011416 | 71 | 178 | 0.0 | 3.0 | 0.00 | 0.00 | 0.00 | 62 | 1004.3 |
| 20260505010911 | 71 | 133 | 1.0 | 6.0 | 0.00 | 0.00 | 0.00 | 61 | 1004.2 |
| 20260505010405 | 71 | 161 | 1.0 | 6.0 | 0.00 | 0.00 | 0.00 | 61 | 1004.2 |
| 20260505005859 | 72 | 170 | 1.0 | 5.0 | 0.00 | 0.00 | 0.00 | 61 | 1004.1 |
| 20260505005353 | 72 | 203 | 2.0 | 7.0 | 0.00 | 0.00 | 0.00 | 60 | 1004.2 |
| 20260505004846 | 72 | 185 | 3.0 | 9.0 | 0.00 | 0.00 | 0.00 | 60 | 1004.1 |
| 20260505004605 | 73 | 178 | 3.0 | 9.0 | 0.00 | 0.00 | 0.00 | 59 | 1004.1 |
| 20260505003835 | 73 | 145 | 2.0 | 10.0 | 0.00 | 0.00 | 0.00 | 59 | 1004.0 |
| 20260505003329 | 73 | 215 | 2.0 | 12.0 | 0.00 | 0.00 | 0.00 | 58 | 1003.9 |
| 20260505002823 | 73 | 190 | 2.0 | 12.0 | 0.00 | 0.00 | 0.00 | 58 | 1003.9 |
| 20260505002317 | 74 | 148 | 2.0 | 8.0 | 0.00 | 0.00 | 0.00 | 57 | 1003.7 |
| 20260505002027 | 74 | 185 | 3.0 | 13.0 | 0.00 | 0.00 | 0.00 | 57 | 1003.5 |
| 20260505001305 | 74 | 197 | 2.0 | 13.0 | 0.00 | 0.00 | 0.00 | 57 | 1003.5 |
| 20260505000759 | 74 | 149 | 1.0 | 8.0 | 0.00 | 0.00 | 0.00 | 57 | 1003.7 |
| 20260505000253 | 75 | 130 | 2.0 | 10.0 | 0.00 | 0.00 | 0.00 | 57 | 1003.7 |
| 20260505000013 | 75 | 154 | 1.0 | 10.0 | 0.00 | 0.00 | 0.00 | 55 | 1003.7 |
| 20260504235241 | 75 | 169 | 1.0 | 8.0 | 0.00 | 0.00 | 0.00 | 57 | 1003.8 |
| 20260504234737 | 75 | 147 | 2.0 | 10.0 | 0.00 | 0.00 | 0.00 | 55 | 1003.9 |
| 20260504234424 | 76 | 156 | 2.0 | 9.0 | 0.00 | 0.00 | 0.00 | 54 | 1004.0 |
| 20260504234315 | 75 | 151 | 2.0 | 10.0 | 0.00 | 0.00 | 0.00 | 54 | 1003.9 |
| 20260504233229 | 76 | 188 | 2.0 | 9.0 | 0.00 | 0.00 | 0.00 | 53 | 1004.1 |
| 20260504232729 | 76 | 171 | 2.0 | 9.0 | 0.00 | 0.00 | 0.00 | 53 | 1004.1 |
| 20260504232229 | 76 | 126 | 2.0 | 9.0 | 0.00 | 0.00 | 0.00 | 53 | 1004.2 |
| 20260504231742 | 76 | 169 | 2.0 | 9.0 | 0.00 | 0.00 | 0.00 | 53 | 1004.2 |
| 20260504231226 | 76 | 166 | 3.0 | 12.0 | 0.00 | 0.00 | 0.00 | 53 | 1004.3 |
| 20260504230723 | 76 | 182 | 4.0 | 12.0 | 0.00 | 0.00 | 0.00 | 52 | 1004.3 |
| 20260504230223 | 76 | 84 | 3.0 | 14.0 | 0.00 | 0.00 | 0.00 | 52 | 1004.2 |
| 20260504225725 | 77 | 198 | 2.0 | 14.0 | 0.00 | 0.00 | 0.00 | 52 | 1004.4 |
| 20260504225223 | 77 | 209 | 3.0 | 10.0 | 0.00 | 0.00 | 0.00 | 52 | 1004.2 |
| 20260504224940 | 77 | 136 | 3.0 | 10.0 | 0.00 | 0.00 | 0.00 | 53 | 1004.3 |
| 20260504224220 | 77 | 150 | 3.0 | 15.0 | 0.00 | 0.00 | 0.00 | 52 | 1004.3 |
| 20260504223720 | 77 | 190 | 2.0 | 15.0 | 0.00 | 0.00 | 0.00 | 53 | 1004.4 |
| 20260504223218 | 78 | 193 | 3.0 | 11.0 | 0.00 | 0.00 | 0.00 | 54 | 1004.4 |
| 20260504222718 | 78 | 180 | 2.0 | 11.0 | 0.00 | 0.00 | 0.00 | 52 | 1004.4 |
| 20260504222219 | 79 | 178 | 1.0 | 11.0 | 0.00 | 0.00 | 0.00 | 49 | 1004.4 |
| 20260504221939 | 79 | 184 | 2.0 | 11.0 | 0.00 | 0.00 | 0.00 | 48 | 1004.4 |
| 20260504221213 | 79 | 234 | 2.0 | 11.0 | 0.00 | 0.00 | 0.00 | 46 | 1004.4 |
| 20260504220925 | 80 | 149 | 2.0 | 11.0 | 0.00 | 0.00 | 0.00 | 47 | 1004.6 |
| 20260504220201 | 80 | 206 | 2.0 | 10.0 | 0.00 | 0.00 | 0.00 | 46 | 1004.6 |
| 20260504215656 | 80 | 131 | 2.0 | 10.0 | 0.00 | 0.00 | 0.00 | 48 | 1004.4 |
| 20260504215155 | 80 | 219 | 2.0 | 9.0 | 0.00 | 0.00 | 0.00 | 47 | 1004.5 |
| 20260504214656 | 80 | 195 | 2.0 | 9.0 | 0.00 | 0.00 | 0.00 | 46 | 1004.6 |
| 20260504214411 | 80 | 178 | 2.0 | 14.0 | 0.00 | 0.00 | 0.00 | 46 | 1004.6 |
| 20260504214255 | 80 | 170 | 1.0 | 10.0 | 0.00 | 0.00 | 0.00 | 47 | 1004.5 |
| 20260504213153 | 80 | 163 | 3.0 | 14.0 | 0.00 | 0.00 | 0.00 | 49 | 1004.6 |
| 20260504212652 | 80 | 200 | 2.0 | 11.0 | 0.00 | 0.00 | 0.00 | 46 | 1004.6 |
| 20260504212204 | 81 | 198 | 2.0 | 11.0 | 0.00 | 0.00 | 0.00 | 44 | 1004.7 |
| 20260504211651 | 80 | 194 | 3.0 | 11.0 | 0.00 | 0.00 | 0.00 | 46 | 1004.8 |
| 20260504211205 | 80 | 161 | 3.0 | 14.0 | 0.00 | 0.00 | 0.00 | 49 | 1004.7 |
| 20260504210653 | 80 | 163 | 5.0 | 14.0 | 0.00 | 0.00 | 0.00 | 47 | 1004.8 |
| 20260504210202 | 80 | 144 | 3.0 | 14.0 | 0.00 | 0.00 | 0.00 | 47 | 1004.8 |
| 20260504205648 | 80 | 240 | 4.0 | 13.0 | 0.00 | 0.00 | 0.00 | 45 | 1004.9 |
| 20260504205147 | 80 | 167 | 4.0 | 12.0 | 0.00 | 0.00 | 0.00 | 45 | 1005.0 |
| 20260504204648 | 81 | 205 | 2.0 | 11.0 | 0.00 | 0.00 | 0.00 | 46 | 1005.0 |
| 20260504204149 | 80 | 240 | 2.0 | 13.0 | 0.00 | 0.00 | 0.00 | 48 | 1005.1 |
| 20260504203909 | 80 | 188 | 3.0 | 13.0 | 0.00 | 0.00 | 0.00 | 48 | 1005.2 |
| 20260504203147 | 80 | 192 | 3.0 | 18.0 | 0.00 | 0.00 | 0.00 | 47 | 1005.3 |
| 20260504202915 | 81 | 194 | 3.0 | 18.0 | 0.00 | 0.00 | 0.00 | 46 | 1005.4 |
| 20260504202149 | 81 | 194 | 2.0 | 14.0 | 0.00 | 0.00 | 0.00 | 47 | 1005.4 |
| 20260504201648 | 81 | 195 | 1.0 | 7.0 | 0.00 | 0.00 | 0.00 | 48 | 1005.4 |
| 20260504201147 | 81 | 222 | 1.0 | 9.0 | 0.00 | 0.00 | 0.00 | 49 | 1005.5 |
| 20260504200911 | 81 | 305 | 2.0 | 14.0 | 0.00 | 0.00 | 0.00 | 46 | 1005.7 |
| 20260504200149 | 80 | 234 | 2.0 | 14.0 | 0.00 | 0.00 | 0.00 | 46 | 1005.8 |
| 20260504200129 | 80 | 159 | 2.0 | 7.0 | 0.00 | 0.00 | 0.00 | 47 | 1005.6 |
| 20260504195636 | 80 | 184 | 2.0 | 8.0 | 0.00 | 0.00 | 0.00 | 48 | 1005.7 |
| 20260504194647 | 80 | 190 | 2.0 | 13.0 | 0.00 | 0.00 | 0.00 | 47 | 1005.8 |
| 20260504194147 | 80 | 131 | 3.0 | 14.0 | 0.00 | 0.00 | 0.00 | 48 | 1005.7 |
| 20260504193649 | 80 | 263 | 4.0 | 14.0 | 0.00 | 0.00 | 0.00 | 48 | 1005.8 |
| 20260504193147 | 80 | 221 | 3.0 | 9.0 | 0.00 | 0.00 | 0.00 | 47 | 1005.8 |
| 20260504192642 | 80 | 252 | 3.0 | 15.0 | 0.00 | 0.00 | 0.00 | 47 | 1005.9 |
| 20260504192134 | 80 | 236 | 2.0 | 15.0 | 0.00 | 0.00 | 0.00 | 49 | 1005.9 |
| 20260504191856 | 81 | 171 | 1.0 | 7.0 | 0.00 | 0.00 | 0.00 | 49 | 1006.0 |
| 20260504191123 | 80 | 222 | 1.0 | 8.0 | 0.00 | 0.00 | 0.00 | 49 | 1006.0 |
| 20260504190615 | 79 | 148 | 2.0 | 15.0 | 0.00 | 0.00 | 0.00 | 49 | 1006.0 |
| 20260504190110 | 79 | 140 | 4.0 | 16.0 | 0.00 | 0.00 | 0.00 | 48 | 1005.9 |
| 20260504185604 | 79 | 182 | 4.0 | 16.0 | 0.00 | 0.00 | 0.00 | 48 | 1006.1 |
| 20260504185058 | 79 | 173 | 4.0 | 12.0 | 0.00 | 0.00 | 0.00 | 48 | 1006.0 |
| 20260504184552 | 79 | 159 | 4.0 | 17.0 | 0.00 | 0.00 | 0.00 | 50 | 1006.0 |
| 20260504184317 | 79 | 194 | 4.0 | 17.0 | 0.00 | 0.00 | 0.00 | 49 | 1006.3 |
| 20260504183540 | 79 | 175 | 3.0 | 12.0 | 0.00 | 0.00 | 0.00 | 48 | 1006.4 |
| 20260504183034 | 79 | 214 | 3.0 | 14.0 | 0.00 | 0.00 | 0.00 | 49 | 1006.5 |
| 20260504182749 | 79 | 171 | 2.0 | 16.0 | 0.00 | 0.00 | 0.00 | 50 | 1006.6 |
| 20260504182233 | 80 | 211 | 1.0 | 10.0 | 0.00 | 0.00 | 0.00 | 51 | 1006.5 |
| 20260504182113 | 80 | 209 | 2.0 | 16.0 | 0.00 | 0.00 | 0.00 | 48 | 1006.6 |
| 20260504181009 | 79 | 179 | 2.0 | 13.0 | 0.00 | 0.00 | 0.00 | 49 | 1006.7 |
| 20260504180503 | 79 | 193 | 2.0 | 13.0 | 0.00 | 0.00 | 0.00 | 50 | 1006.9 |
| 20260504175958 | 79 | 182 | 2.0 | 16.0 | 0.00 | 0.00 | 0.00 | 48 | 1006.7 |
| 20260504175452 | 79 | 244 | 2.0 | 16.0 | 0.00 | 0.00 | 0.00 | 48 | 1006.7 |
| 20260504174946 | 79 | 201 | 1.0 | 12.0 | 0.00 | 0.00 | 0.00 | 49 | 1006.6 |
| 20260504174440 | 79 | 198 | 1.0 | 12.0 | 0.00 | 0.00 | 0.00 | 48 | 1007.0 |
| 20260504173934 | 79 | 204 | 1.0 | 6.0 | 0.00 | 0.00 | 0.00 | 47 | 1006.9 |
| 20260504173428 | 79 | 180 | 2.0 | 8.0 | 0.00 | 0.00 | 0.00 | 48 | 1007.1 |
| 20260504172922 | 79 | 154 | 2.0 | 8.0 | 0.00 | 0.00 | 0.00 | 47 | 1007.3 |
| 20260504172416 | 78 | 286 | 1.0 | 8.0 | 0.00 | 0.00 | 0.00 | 50 | 1007.2 |
| 20260504172133 | 78 | 210 | 2.0 | 15.0 | 0.00 | 0.00 | 0.00 | 49 | 1007.2 |
| 20260504171405 | 78 | 217 | 2.0 | 15.0 | 0.00 | 0.00 | 0.00 | 50 | 1007.4 |
| 20260504170858 | 78 | 260 | 2.0 | 9.0 | 0.00 | 0.00 | 0.00 | 46 | 1007.4 |
| 20260504170352 | 78 | 188 | 2.0 | 17.0 | 0.00 | 0.00 | 0.00 | 50 | 1007.3 |
| 20260504160253 | 76 | 113 | 2.0 | 12.0 | 0.00 | 0.00 | 0.00 | 49 | 1008.0 |
| 20260504151140 | 74 | 163 | 1.0 | 9.0 | 0.00 | 0.00 | 0.00 | 53 | 1008.2 |
| 20260504150633 | 74 | 153 | 1.0 | 7.0 | 0.00 | 0.00 | 0.00 | 53 | 1008.2 |
| 20260504150128 | 73 | 210 | 2.0 | 12.0 | 0.00 | 0.00 | 0.00 | 54 | 1008.3 |
| 20260504141028 | 71 | 190 | 1.0 | 12.0 | 0.00 | 0.00 | 0.00 | 58 | 1008.9 |
| 20260504140522 | 71 | 215 | 2.0 | 12.0 | 0.00 | 0.00 | 0.00 | 55 | 1008.8 |
| 20260504130428 | 66 | 109 | 1.0 | 10.0 | 0.00 | 0.00 | 0.00 | 60 | 1009.0 |